Location: Gro� Glienicke
(52.4675°N, 13.1079°E)
Time: 01:19:43
(UTC+00:00)

Cosmos 2237 Rocket - Pass Details

Date: 06 July 2020
Orbit: 835 x 850 km, 71.0° (Epoch: 11 August)

Event Time Altitude Azimuth Distance (km) Brightness Sun altitude
Exits shadow 21:59:15 - 206° (SSW) 2,585 4.3 -13.3°
Reaches altitude 10° 21:59:33 10° 205° (SSW) 2,471 4.2 -13.3°
Maximum altitude 22:05:14 83° 120° (ESE) 863 2.2 -13.5°
Drops below altitude 10° 22:10:59 10° 32° (NNE) 2,489 5.3 -13.8°
Sets 22:13:26 0° 32° (NNE) 3,428 6.1 -13.9°
